Weather Roundup
Issued by NWS

Home | Current Version | Previous Version | Graphics & Text | Print | Product List | Glossary Off
Versions: 1 2 3 4 5 6 7 8 9 10 11 12 13 14 15 16 17 18 19 20 21 22 23 24 25 26 27 28 29 30 31 32 33 34 35 36 37 38 39 40 41 42 43 44 45 46 47 48 49 50

000
NZUS93 KARX 201859
HRRWXR

CURRENT HOURLY OBSERVATIONS ACROSS
MUCH OF THE UPPER MISSISSIPPI VALLEY
NATIONAL WEATHER SERVICE LA CROSSE WI
200 PM CDT MON OCT 20 2014


...SOUTHEAST MINNESOTA...


CITY           SKY/WX    TMP DP  RH WIND       PRES   REMARKS
ROCHESTER      SUNNY     62  44  51 N14       29.97F
ROCHESTER/MAYO FAIR      60  38  43 NW8G16    29.96S
WINONA         SUNNY     63  41  45 NW15G23   29.94F
AUSTIN         SUNNY     63  43  48 NW16G23   29.96F
ALBERT LEA     SUNNY     64  39  39 NW14G26   29.98S
DODGE CENTER   SUNNY     61  45  55 NW9G17    29.97S
PRESTON        SUNNY     60  43  54 NW15G21   29.96S
OWATONNA       SUNNY     63  43  48 NW13G18   29.98S
FARIBAULT      SUNNY     64  43  45 W13       29.99S
$$

...ELSEWHERE IN MINNESOTA...


CITY           SKY/WX    TMP DP  RH WIND       PRES   REMARKS
MINNEAPOLIS    SUNNY     63  43  48 NW13G18   29.98F
INTNL FALLS    CLOUDY    47  36  65 N8        30.04S
DULUTH         CLOUDY    50  39  66 N9        29.99S
RED WING       MOSUNNY   63  41  45 NW10G16   29.96S
REDWOOD FALLS  SUNNY     67  40  37 NW13G21   30.02F
MANKATO        SUNNY     64  39  39 NW17      29.99S
WORTHINGTON    SUNNY     66  37  34 NW14      30.05F
FAIRMONT       SUNNY     66  37  34 NW15G21   30.01F
$$

...SOUTHWEST WISCONSIN...


CITY           SKY/WX    TMP DP  RH WIND       PRES   REMARKS
LA CROSSE      SUNNY     65  42  43 NW15      29.92F
PRAIRIE DU CHI SUNNY     65  41  42 N13G20    29.92S
BOSCOBEL       MOSUNNY   66  43  43 NW17      29.92S
LONE ROCK      NOT AVBL
PLATTEVILLE    MOSUNNY   62  42  47 NW18G25   29.92S
FORT MC COY    CLOUDY    60  40  47 N10G17    29.94R
VIROQUA        FAIR      58  42  55 N13G20    29.93S
WIS DELLS      PTSUNNY   57  40  52 N7G16     29.91R
$$

...ELSEWHERE IN WISCONSIN...


CITY           SKY/WX    TMP DP  RH WIND       PRES   REMARKS
MILWAUKEE      PTSUNNY   54  45  71 NE13      29.86R
MADISON        PTSUNNY   60  40  47 N13       29.90R
GREEN BAY      CLOUDY    54  42  64 NW13      29.88S
EAU CLAIRE     CLOUDY    57  39  51 N9        29.96R
BLACK RVR FLS  MOCLDY    59  37  44 N9G21     29.93S
MEDFORD        CLOUDY    49  41  74 N9        29.93S
WAUSAU         CLOUDY    51  41  68 N13G22    29.91R
WIS RAPIDS     CLOUDY    55  40  56 NW13      29.93R
MARSHFIELD     CLOUDY    55  41  59 NW16      29.93R
RICE LAKE      CLOUDY    53  40  59 N7        29.99R
$$

...NORTHEAST IOWA...


CITY           SKY/WX    TMP DP  RH WIND       PRES   REMARKS
DECORAH        SUNNY     63  45  51 NW12G23   29.94F
MASON CITY       N/A     65  42  43 NW18      30.00F
CHARLES CITY   SUNNY     64  41  42 NW16G25   29.97F
OELWEIN        SUNNY     64  43  45 NW21      29.96S
$$

...ELSEWHERE IN IOWA...


CITY           SKY/WX    TMP DP  RH WIND       PRES   REMARKS
DES MOINES     SUNNY     70  41  34 NW13      30.01F
IOWA CITY      SUNNY     67  44  43 NW18G24   29.96F
FORT DODGE     SUNNY     68  41  37 NW12G17   30.03S
$$

...NORTHERN ILLINOIS...


CITY           SKY/WX    TMP DP  RH WIND       PRES   REMARKS
CHICAGO-OHARE  PTSUNNY   64  46  52 NW16      29.83F
CHICAGO-MIDWAY MOSUNNY   65  48  54 NW9       29.83F
MOLINE         MOSUNNY   66  45  46 NW14      29.92F
ROCKFORD       MOSUNNY   63  43  48 N12       29.89F
PEORIA         SUNNY     68  44  42 NW10G20   29.91S
$$

NOTE: "FAIR" INDICATES FEW OR NO CLOUDS BELOW 12,000 FEET WITH NO
SIGNIFICANT WEATHER AND/OR OBSTRUCTIONS TO VISIBILITY. WIND
SPEEDS ARE IN MILES-PER-HOUR.



USA.gov is the U.S. government's official web portal to all federal, state and local government web resources and services.